Regional Weather Roundup
Issued by NWS

Home | Current Version | Previous Version | Text Only | Print | Product List | Glossary On
Versions: 1 2 3 4 5 6 7 8 9 10 11 12 13 14 15 16 17 18 19 20 21 22 23 24 25 26 27 28 29 30 31 32 33 34 35 36 37 38 39 40 41 42 43 44 45 46 47 48 49 50
000
ASUS43 KMKX 300011
RWRWI

WISCONSIN REGIONAL WEATHER ROUNDUP
NATIONAL WEATHER SERVICE MILWAUKEE/SULLIVAN WI
700 PM CDT WED JUL 29 2015

NOTE: "FAIR" INDICATES FEW OR NO CLOUDS BELOW 12,000 FEET WITH NO
SIGNIFICANT WEATHER AND/OR OBSTRUCTIONS TO VISIBILITY.

WIZ001-002-006>008-014>016-023>028-300100-
NORTHWEST WISCONSIN

CITY           SKY/WX    TMP DP  RH WIND       PRES   REMARKS
SUPERIOR ARPT  MOSUNNY   77  56  47 W17G24    29.80S
6HR MIN TEMP:  70; 6HR MAX TEMP:  79;

ASHLAND        PTSUNNY   76  57  51 W8G17     29.80S
6HR MIN TEMP:  70; 6HR MAX TEMP:  77;

HAYWARD        MOSUNNY   78  53  41 W12G23    29.86S
6HR MIN TEMP:  72; 6HR MAX TEMP:  79;

SIREN          MOSUNNY   78  53  41 W13G23    29.88S
6HR MIN TEMP:  75; 6HR MAX TEMP:  80;

CUMBERLAND     SUNNY     73  50  43 W10G26    29.90S
RICE LAKE      SUNNY     76  52  42 W13G23    29.91S
6HR MIN TEMP:  74; 6HR MAX TEMP:  78;

CHETEK         MOSUNNY   77  56  47 MISG      29.90S
LADYSMITH      MOSUNNY   77  54  43 W13G20    29.90F
6HR MIN TEMP:  76; 6HR MAX TEMP:  80;

EAU CLAIRE     MOSUNNY   79  56  45 W10G21    29.91S HX  80
6HR MIN TEMP:  79; 6HR MAX TEMP:  82;

MENOMONIE      SUNNY     79  53  40 W14       29.92S
6HR MIN TEMP:  79; 6HR MAX TEMP:  82;

NEW RICHMOND   SUNNY     78  53  41 W18G24    29.92F
6HR MIN TEMP:  77; 6HR MAX TEMP:  81;

OSCEOLA        SUNNY     78  54  42 W14G22    29.94S
6HR MIN TEMP:  77; 6HR MAX TEMP:  81;

$$

WIZ003>005-009-010-017-018-300100-
NORTH CENTRAL WISCONSIN

CITY           SKY/WX    TMP DP  RH WIND       PRES   REMARKS
MANITOWISH WTR CLOUDY    72  55  54 W8        29.86R
6HR MIN TEMP:  71; 6HR MAX TEMP:  74;

ARBOR VITAE    CLOUDY    74  55  50 W12G21    29.86S
6HR MIN TEMP:  73; 6HR MAX TEMP:  77;

WOODRUFF       CLOUDY    74  55  50 W12G21    29.86S
6HR MIN TEMP:  73; 6HR MAX TEMP:  77;

RHINELANDER    MOSUNNY   75  51  43 W21G33    29.88S
6HR MIN TEMP:  75; 6HR MAX TEMP:  81;

EAGLE RIVER    CLOUDY    73  50  43 W14G21    29.85S
6HR MIN TEMP:  73; 6HR MAX TEMP:  78;

LAND O LAKES   CLOUDY    73  53  48 W7G17     29.85F
6HR MIN TEMP:  72; 6HR MAX TEMP:  76;

PHILLIPS       PTSUNNY   74  55  49 W9        29.87S
6HR MIN TEMP:  73; 6HR MAX TEMP:  77;

TOMAHAWK       MOSUNNY   74  53  46 W9        29.89S
6HR MIN TEMP:  74; 6HR MAX TEMP:  78;

MEDFORD        SUNNY     74  55  49 W14       29.91S
6HR MIN TEMP:  74; 6HR MAX TEMP:  78;

MERRILL        NOT AVBL
$$

WIZ029-030-035-036-043>047-300100-
CENTRAL WISCONSIN

CITY           SKY/WX    TMP DP  RH WIND       PRES   REMARKS
WAUSAU         MOSUNNY   78  52  40 W17G28    29.89R
6HR MIN TEMP:  78; 6HR MAX TEMP:  83;

MOSINEE        MOSUNNY   77  52  41 W20G29    29.92R
MARSHFIELD     SUNNY     77  52  41 W10       29.92R
6HR MIN TEMP:  77; 6HR MAX TEMP:  82;

STEVENS POINT  MOSUNNY   77  53  42 W14G23    29.92R
6HR MIN TEMP:  77; 6HR MAX TEMP:  81;

WAUPACA        MOSUNNY   82  50  32 W12       29.91R HX  81
6HR MIN TEMP:  82; 6HR MAX TEMP:  87;

WAUTOMA        SUNNY     83  52  34 W14G21    29.92R HX  82
6HR MIN TEMP:  83; 6HR MAX TEMP:  88;

WISC RAPIDS    SUNNY     80  50  34 W14G24    29.94R HX  80
6HR MIN TEMP:  80; 6HR MAX TEMP:  85;

CAMP DOUGLAS   MOSUNNY   79  55  44 W16G23    29.94R
$$

WIZ011>013-019>022-031-037>040-048>050-300100-
NORTHEAST WISCONSIN

CITY           SKY/WX    TMP DP  RH WIND       PRES   REMARKS
ANTIGO         PTSUNNY   75  53  46 W13       29.90R
SHAWANO        CLOUDY    80  52  38 W9G16     29.88R HX  80
6HR MIN TEMP:  80; 6HR MAX TEMP:  85;

OCONTO         CLOUDY    79  55  43 W12G17    29.85R HX  80
6HR MIN TEMP:  79; 6HR MAX TEMP:  86;

STURGEON BAY   PTSUNNY   79  55  44 W15G21    29.87R
6HR MIN TEMP:  79; 6HR MAX TEMP:  84;

GREEN BAY      PTSUNNY   80  54  40 W15G23    29.88R HX  80
6HR MIN TEMP:  80; 6HR MAX TEMP:  85;

MANITOWOC      SUNNY     83  50  31 MISG      29.87R HX  81
6HR MIN TEMP:  83; 6HR MAX TEMP:  85;

APPLETON       NOT AVBL
CLINTONVILLE   MOSUNNY   81  46  30 W12G28    29.89R HX  80
OSHKOSH        SUNNY     81  52  36 W10G20    29.90R HX  80
6HR MIN TEMP:  81; 6HR MAX TEMP:  84;

$$

WIZ032>034-041-042-053>061-300100-
SOUTHWEST WISCONSIN

CITY           SKY/WX    TMP DP  RH WIND       PRES   REMARKS
LA CROSSE      SUNNY     82  54  37 W14       29.95S HX  81
6HR MIN TEMP:  82; 6HR MAX TEMP:  85;

SPARTA         SUNNY     80  48  32 W10G26    29.96R
6HR MIN TEMP:  80; 6HR MAX TEMP:  83;

VIROQUA        SUNNY     77  52  42 W10G18    30.00S
6HR MIN TEMP:  77; 6HR MAX TEMP:  80;

BOSCOBEL       SUNNY     82  53  36 W13G23    29.98S HX  81
6HR MIN TEMP:  82; 6HR MAX TEMP:  87;

PRAIRIE DU CHI SUNNY     82  48  30 W14G22    29.99S HX  80
6HR MIN TEMP:  82; 6HR MAX TEMP:  85;

PLATTEVILLE    SUNNY     79  53  40 W10G18    30.01R
6HR MIN TEMP:  78; 6HR MAX TEMP:  82;

$$

WIZ056-057-062-063-064-067-068-300100-
SOUTH CENTRAL WISCONSIN

CITY           SKY/WX    TMP DP  RH WIND       PRES   REMARKS
REEDSBURG      SUNNY     81  54  39 W15G23    29.95R HX  80
6HR MIN TEMP:  81; 6HR MAX TEMP:  85;

BARABOO/DELLS  SUNNY     81  47  30 W14G23    29.95S HX  80
6HR MIN TEMP:  81; 6HR MAX TEMP:  85;

LONE ROCK      SUNNY     81  52  36 W15       29.97R HX  80
6HR MIN TEMP:  81; 6HR MAX TEMP:  85;

MINERAL POINT  SUNNY     79  48  34 W12       30.00S
MADISON        MOSUNNY   81  52  36 W13G22    29.95R HX  80
6HR MIN TEMP:  81; 6HR MAX TEMP:  84;

MIDDLETON      SUNNY     81  47  30 W15       29.97R HX  80
6HR MIN TEMP:  81; 6HR MAX TEMP:  86;

WATERTOWN      SUNNY     79  55  42 W10       29.94S HX  80
6HR MIN TEMP:  79; 6HR MAX TEMP:  83;

MONROE         SUNNY     79  52  38 W16G22    29.99S
JANESVILLE     MOSUNNY   82  48  30 W15G21    29.97R HX  81
$$

WIZ051-052-058>065-066-070>072-300100-
SOUTHEAST WISCONSIN

CITY           SKY/WX    TMP DP  RH WIND       PRES   REMARKS
MILWAUKEE      MOSUNNY   84  50  30 W17G24    29.92S HX  82
6HR MIN TEMP:  84; 6HR MAX TEMP:  87;

WAUKESHA       SUNNY     81  50  34 W14       29.95S HX  80
MILWAUKEE/TIMM NOT AVBL
RACINE         SUNNY     82  51  34 W12G22    29.95S HX  81
6HR MIN TEMP:  82; 6HR MAX TEMP:  86;

BURLINGTON     SUNNY     79  50  36 W8        29.96S
6HR MIN TEMP:  79; 6HR MAX TEMP:  83;

KENOSHA        SUNNY     80  55  42 W12       29.95S HX  80
6HR MIN TEMP:  80; 6HR MAX TEMP:  84;

FOND DU LAC    SUNNY     81  53  37 W13G22    29.91R HX  80
6HR MIN TEMP:  81; 6HR MAX TEMP:  85;

SHEBOYGAN      SUNNY     81  53  37 W14G25    29.89R HX  80
6HR MIN TEMP:  81; 6HR MAX TEMP:  85;

WEST BEND      SUNNY     81  48  32 W14       29.92S HX  80
JUNEAU         SUNNY     78  55  43 W13       29.95R
6HR MIN TEMP:  78; 6HR MAX TEMP:  81;

$$

LSZ147-162-300100-
LAKE SUPERIOR

STATION/POSITION TIME  TEMP    WIND        PRES    WAVE
                       AIR SEA DIR/SP/G            HT/PER
                 (UTC) (F)     (DEG/KT/KT) (MB)    (FT/S)
W MID LAKE BUOY  2350   62 55  240/ 14/ 16 1006.7S   4/ 6
DEVILS ISLAND    0000   69     240/ 18/ 20 1007.3F
PORT WING        2300   76     240/  9/ 15 1008.8R
SAXON HARBOR     2300   76                 1008.8S
$$

LMZ867-665-643>646-300100-
LAKE MICHIGAN

STATION/POSITION TIME  TEMP    WIND        PRES    WAVE
                       AIR SEA DIR/SP/G            HT/PER
                 (UTC) (F)     (DEG/KT/KT) (MB)    (FT/S)
CHAMBERS ISLAND  2300   78     200/  2/  8 1009.1R
S GREEN BAY BUOY 0000   71 67  280/ 10/ 14 1012.4



USA.gov is the U.S. government's official web portal to all federal, state and local government web resources and services.